When you browse on this site, cookies collect data to enhance your experience and personalize the content and advertising you see.
Visit our Privacy Policy to learn more. By continuing to use the site, you agree to this use of cookies and data.
EN

Hourly Weather Viitivshchyna

Today, 14 August, Friday

Time Temperature Precipitation Wind Pressure Humidity
00:00 +16°C° 0 mm 1 mps 733 mmHg 74%
01:00 +16°C° 0 mm 1 mps 733 mmHg 77%
02:00 +15°C° 0 mm 1 mps 733 mmHg 80%
03:00 +15°C° 0 mm 1 mps 732 mmHg 82%
04:00 +15°C° 0 mm 1 mps 732 mmHg 85%
05:00 +14°C° 0 mm 1 mps 732 mmHg 87%
06:00 +16°C° 0 mm 1 mps 732 mmHg 83%
07:00 +18°C° 0 mm 1 mps 733 mmHg 78%
08:00 +19°C° 0 mm 2 mps 733 mmHg 73%
09:00 +20°C° 0 mm 2 mps 733 mmHg 69%
10:00 +23°C° 0 mm 2 mps 733 mmHg 64%
11:00 +24°C° 0 mm 3 mps 733 mmHg 60%
12:00 +25°C° 0 mm 3 mps 733 mmHg 57%
13:00 +25°C° 0 mm 3 mps 733 mmHg 54%
14:00 +26°C° 0 mm 3 mps 733 mmHg 52%
15:00 +25°C° 0 mm 3 mps 733 mmHg 54%
16:00 +25°C° 0 mm 3 mps 733 mmHg 57%
17:00 +25°C° 0 mm 4 mps 732 mmHg 59%
18:00 +22°C° 0 mm 4 mps 732 mmHg 66%
19:00 +20°C° 0 mm 4 mps 732 mmHg 73%
20:00 +18°C° 0 mm 3 mps 732 mmHg 80%
21:00 +17°C° 0 mm 3 mps 732 mmHg 81%
22:00 +16°C° 0 mm 3 mps 732 mmHg 83%
23:00 +15°C° 0 mm 4 mps 732 mmHg 84%

Tomorrow, 15 August, Saturday

Time Temperature Precipitation Wind Pressure Humidity
00:00 +14°C° 0 mm 3 mps 732 mmHg 84%
01:00 +14°C° 0 mm 3 mps 732 mmHg 84%
02:00 +13°C° 0 mm 3 mps 732 mmHg 85%
03:00 +13°C° 0 mm 3 mps 732 mmHg 84%
04:00 +13°C° 0 mm 3 mps 732 mmHg 84%
05:00 +12°C° 0 mm 3 mps 732 mmHg 83%
06:00 +13°C° 0 mm 4 mps 732 mmHg 80%
07:00 +14°C° 0 mm 4 mps 732 mmHg 77%
08:00 +15°C° 0 mm 4 mps 732 mmHg 74%
09:00 +18°C° 0 mm 4 mps 732 mmHg 71%
10:00 +19°C° 0 mm 5 mps 732 mmHg 68%
11:00 +21°C° 0 mm 5 mps 733 mmHg 65%
12:00 +21°C° 0 mm 5 mps 733 mmHg 64%
13:00 +22°C° 0 mm 6 mps 733 mmHg 63%
14:00 +23°C° 0 mm 6 mps 733 mmHg 62%
15:00 +22°C° 0 mm 6 mps 732 mmHg 64%
16:00 +22°C° 0 mm 5 mps 732 mmHg 66%
17:00 +22°C° 0 mm 5 mps 732 mmHg 68%
18:00 +21°C° 0 mm 5 mps 732 mmHg 72%
19:00 +19°C° 0 mm 4 mps 732 mmHg 76%
20:00 +18°C° 0 mm 4 mps 732 mmHg 80%
21:00 +18°C° 0 mm 4 mps 732 mmHg 80%
22:00 +17°C° 0 mm 4 mps 732 mmHg 80%
23:00 +17°C° 0 mm 4 mps 732 mmHg 81%

Day after tomorrow, 16 August, Sunday

Time Temperature Precipitation Wind Pressure Humidity
00:00 +15°C° 0 mm 4 mps 732 mmHg 78%
01:00 +15°C° 0 mm 4 mps 732 mmHg 76%
02:00 +15°C° 0 mm 4 mps 732 mmHg 73%
03:00 +14°C° 0 mm 4 mps 732 mmHg 73%
04:00 +14°C° 0 mm 4 mps 732 mmHg 73%
05:00 +13°C° 0 mm 4 mps 732 mmHg 73%
06:00 +14°C° 0 mm 4 mps 732 mmHg 72%
07:00 +15°C° 0 mm 4 mps 732 mmHg 71%
08:00 +17°C° 0 mm 4 mps 733 mmHg 70%
09:00 +19°C° 0 mm 5 mps 733 mmHg 69%
10:00 +20°C° 0 mm 5 mps 733 mmHg 67%
11:00 +22°C° 0 mm 5 mps 734 mmHg 65%
12:00 +23°C° 0 mm 5 mps 733 mmHg 63%
13:00 +25°C° 0 mm 5 mps 733 mmHg 62%
14:00 +24°C° 0 mm 6 mps 733 mmHg 60%
15:00 +25°C° 0 mm 5 mps 733 mmHg 62%
16:00 +25°C° 0 mm 5 mps 733 mmHg 64%
17:00 +25°C° 0 mm 5 mps 733 mmHg 65%
18:00 +22°C° 0 mm 5 mps 732 mmHg 71%
19:00 +21°C° 0 mm 4 mps 732 mmHg 76%
20:00 +19°C° 0 mm 4 mps 732 mmHg 82%
21:00 +19°C° 0 mm 4 mps 732 mmHg 83%
22:00 +18°C° 0 mm 4 mps 732 mmHg 84%
23:00 +17°C° 0 mm 4 mps 732 mmHg 85%

17 August, Monday

Time Temperature Precipitation Wind Pressure Humidity
00:00 +17°C° 0 mm 4 mps 732 mmHg 84%
01:00 +15°C° 0 mm 4 mps 732 mmHg 84%
02:00 +15°C° 0 mm 4 mps 732 mmHg 83%
03:00 +16°C° 0 mm 3 mps 732 mmHg 82%
04:00 +14°C° 0 mm 3 mps 732 mmHg 80%
05:00 +14°C° 0 mm 3 mps 731 mmHg 79%
06:00 +16°C° 0 mm 3 mps 731 mmHg 77%
07:00 +17°C° 0 mm 4 mps 731 mmHg 76%
08:00 +18°C° 0 mm 4 mps 731 mmHg 74%
09:00 +20°C° 0 mm 3 mps 732 mmHg 71%
10:00 +22°C° 0 mm 3 mps 732 mmHg 69%
11:00 +24°C° 0 mm 3 mps 732 mmHg 66%
12:00 +25°C° 0.5 mm 3 mps 731 mmHg 66%
13:00 +26°C° 0.5 mm 3 mps 731 mmHg 66%
14:00 +27°C° 0.5 mm 3 mps 731 mmHg 65%
15:00 +26°C° 0.8 mm 3 mps 730 mmHg 67%
16:00 +26°C° 0.8 mm 3 mps 730 mmHg 68%
17:00 +26°C° 0.8 mm 2 mps 730 mmHg 69%
18:00 +25°C° 0.1 mm 2 mps 730 mmHg 75%
19:00 +23°C° 0.1 mm 2 mps 729 mmHg 80%
20:00 +21°C° 0.1 mm 2 mps 729 mmHg 86%
21:00 +20°C° 0.1 mm 2 mps 729 mmHg 87%
22:00 +19°C° 0.1 mm 2 mps 729 mmHg 89%
23:00 +19°C° 0.1 mm 2 mps 729 mmHg 90%

18 August, Tuesday

Time Temperature Precipitation Wind Pressure Humidity
00:00 +18°C° 0.4 mm 2 mps 729 mmHg 91%
01:00 +18°C° 0.4 mm 2 mps 729 mmHg 92%
02:00 +18°C° 0.4 mm 2 mps 728 mmHg 93%
03:00 +17°C° 0 mm 2 mps 728 mmHg 94%
04:00 +17°C° 0 mm 2 mps 728 mmHg 94%
05:00 +17°C° 0 mm 2 mps 728 mmHg 94%
06:00 +18°C° 0 mm 2 mps 728 mmHg 91%
07:00 +20°C° 0 mm 2 mps 728 mmHg 87%
08:00 +21°C° 0 mm 2 mps 728 mmHg 84%
09:00 +23°C° 0.2 mm 2 mps 728 mmHg 78%
10:00 +25°C° 0.2 mm 2 mps 728 mmHg 73%
11:00 +26°C° 0.2 mm 2 mps 728 mmHg 68%
12:00 +27°C° 0.5 mm 2 mps 728 mmHg 65%
13:00 +27°C° 0.5 mm 2 mps 728 mmHg 63%
14:00 +28°C° 0.5 mm 2 mps 727 mmHg 60%
15:00 +27°C° 1.4 mm 2 mps 727 mmHg 66%
16:00 +26°C° 1.4 mm 2 mps 727 mmHg 71%
17:00 +26°C° 1.4 mm 2 mps 727 mmHg 76%
18:00 +24°C° 0.6 mm 2 mps 727 mmHg 81%
19:00 +23°C° 0.6 mm 2 mps 727 mmHg 85%
20:00 +20°C° 0.6 mm 2 mps 727 mmHg 89%
21:00 +20°C° 0.2 mm 2 mps 727 mmHg 90%
22:00 +19°C° 0.2 mm 2 mps 727 mmHg 91%
23:00 +20°C° 0.2 mm 1 mps 727 mmHg 92%

19 August, Wednesday

Time Temperature Precipitation Wind Pressure Humidity
00:00 +18°C° 0 mm 2 mps 727 mmHg 93%
01:00 +18°C° 0 mm 2 mps 727 mmHg 94%
02:00 +18°C° 0 mm 3 mps 727 mmHg 95%
03:00 +17°C° 0 mm 3 mps 727 mmHg 96%
04:00 +17°C° 0 mm 3 mps 727 mmHg 97%
05:00 +17°C° 0 mm 3 mps 727 mmHg 97%
06:00 +17°C° 0 mm 3 mps 727 mmHg 95%
07:00 +17°C° 0 mm 3 mps 727 mmHg 94%
08:00 +18°C° 0 mm 3 mps 727 mmHg 92%
09:00 +18°C° 0 mm 3 mps 727 mmHg 88%
10:00 +19°C° 0 mm 3 mps 728 mmHg 85%
11:00 +20°C° 0 mm 3 mps 728 mmHg 81%
12:00 +21°C° 0 mm 3 mps 728 mmHg 76%
13:00 +22°C° 0 mm 3 mps 728 mmHg 71%
14:00 +24°C° 0 mm 3 mps 727 mmHg 66%
15:00 +24°C° 0 mm 3 mps 727 mmHg 65%
16:00 +24°C° 0 mm 2 mps 727 mmHg 64%
17:00 +24°C° 0 mm 2 mps 727 mmHg 64%
18:00 +23°C° 0 mm 2 mps 727 mmHg 68%
19:00 +22°C° 0 mm 1 mps 727 mmHg 72%
20:00 +20°C° 0 mm 1 mps 726 mmHg 76%
21:00 +20°C° 0 mm 1 mps 726 mmHg 78%
22:00 +19°C° 0 mm 1 mps 727 mmHg 80%
23:00 +19°C° 0 mm 1 mps 727 mmHg 82%
Show more